[[{"header":{"parameterUnit":"m.s-1","parameterCategory":1,"la1":30.2991,"la2":30.254,"lo1":-89.0895,"lo2":-89.0444,"dy":0.0017,"dx":0.0017,"nx":28,"ny":28,"refTime":"2023-04-17T15:00:00:Z","depth":0,"parameterNumber":2,"parameterNumberName":"U-component_of_WINDS"},"data":[0,0,0,0,0,0,0,0,0,0,0,0,0,0,0,0,0,0,0,0,0,0,0,0,0,0,0,0,0,0,0,0,0,0,0,0,0,0,0,0,0,0,0,0,0,0,0,0,0,0,0,0,0,0,0,0,0,0,-4.8736,-4.8737,0,-4.8853,-4.8854,-4.8855,-4.8783,-4.8779,-4.8776,-4.8773,-4.8894,-4.8901,-4.8907,0,0,0,0,0,0,0,0,0,0,0,0,0,-4.8453,-4.8459,-4.8736,-4.8737,-4.8739,-4.8852,-4.8854,-4.8856,-4.8784,-4.8779,-4.8775,-4.8771,-4.8892,-4.89,-4.8908,0,0,0,0,0,0,0,0,0,0,0,0,0,-4.8574,-4.8461,-4.8736,-4.8717,-4.8716,-4.8852,-4.8854,-4.8856,-4.8784,-4.8779,-4.8774,-4.8769,-4.889,-4.8899,-4.8909,-4.9071,0,0,-4.8938,-4.8942,0,0,0,0,0,0,0,0,-4.8567,-4.8584,-4.8718,-4.8718,-4.8718,-4.8798,-4.8799,-4.8928,-4.8786,-4.8759,-4.8773,-4.8767,-4.8867,-4.8878,-4.8911,-4.9077,-4.9082,-4.8939,-4.8945,-4.8949,-4.8952,0,0,0,0,0,0,0,-4.8559,-4.8579,-4.8782,-4.872,-4.872,-4.8703,-4.8714,-4.8823,-4.884,-4.876,-4.8755,-4.877,-4.8866,-4.8902,-4.8913,-4.9084,-4.8939,-4.8947,-4.8953,-4.8957,-4.9388,-4.9393,0,0,0,0,0,0,-4.8551,-4.8572,-4.8778,-4.8786,-4.8628,-4.8712,-4.8725,-4.8777,-4.8839,-4.8843,-4.8774,-4.8766,-4.8888,-4.8902,-4.8917,-4.911,-4.8949,-4.8958,-4.8963,-4.9382,-4.9389,-4.9395,0,0,0,0,0,0,-4.8546,-4.8571,-4.8774,-4.8678,-4.8702,-4.8722,-4.8782,-4.8782,-4.8818,-4.8849,-4.8852,-4.8808,-4.8884,-4.8904,-4.9033,-4.9113,-4.8962,-4.8971,-4.9375,-4.9384,-4.9392,-4.9497,0,0,0,0,0,0,-4.8538,-4.8569,-4.863,-4.868,-4.8708,-4.8887,-4.8787,-4.8788,-4.8835,-4.8826,-4.8882,-4.8886,-4.8882,-4.9019,-4.9043,-4.9124,-4.8979,-4.9368,-4.9379,-4.9389,-4.9486,-4.9508,-4.9526,0,0,0,0,0,-4.8528,-4.8656,-4.8633,-4.8659,-4.8784,-4.8892,-4.8908,-4.89,-4.8842,-4.8904,-4.8924,-4.8884,-4.9101,-4.9033,-4.9059,-4.9144,-4.9363,-4.9376,-4.9388,-4.9477,-4.9504,-4.9526,0,0,0,0,0,0,-4.8616,-4.8662,-4.8638,-4.8785,-4.8835,-4.8879,-4.8956,-4.8928,-4.8996,-4.8984,-4.8973,-4.8986,-4.912,-4.9146,-4.9068,-4.9304,-4.9223,-4.9242,-4.9282,-4.9307,-4.9327,-4.9317,-4.8987,0,0,0,0,0,-4.8652,-4.8734,-4.8771,-4.8897,-4.8924,-4.8936,-4.8983,-4.8973,-4.9024,-4.9045,-4.9074,-4.9126,-4.9206,-4.9258,-4.9334,-4.9491,-4.9501,-4.9563,-4.9583,-4.9599,-4.9614,-4.9698,-4.9725,-4.9437,-4.9437,-4.9436,0,0,-4.8728,-4.8764,-4.8816,-4.8916,-4.8953,-4.9039,-4.8954,-4.9049,-4.9113,-4.9059,-4.9182,-4.9206,-4.9263,-4.9407,-4.9472,-4.9432,-4.9697,-4.9615,-4.9628,-4.9634,-4.9714,-4.9741,-4.9765,-4.9445,-4.9444,-4.9442,0,0,-4.891,-4.8946,-4.9054,-4.9093,-4.9151,-4.9159,-4.9185,-4.9234,-4.9247,-4.9371,-4.9332,-4.9409,-4.9547,-4.9589,-4.9628,-4.9828,-4.9794,-4.9853,-4.9957,-5.0039,-5.0061,-5.0081,-5.015,-5.0176,-4.9869,-4.9869,-4.9869,0,-4.8997,-4.9123,-4.9114,-4.9211,-4.9256,-4.9212,-4.9321,-4.9361,-4.944,-4.9472,-4.9427,-4.9599,-4.9635,-4.9787,-4.9836,-4.987,-4.9899,-4.9845,-5.0059,-5.0079,-5.0097,-5.0163,-5.0189,-4.9876,-4.9875,-4.9874,-4.9874,0,-4.9227,-4.9316,-4.9397,-4.9474,-4.9528,-4.9632,-4.9638,-4.9694,-4.9681,-4.9693,-4.982,-4.9861,-4.9944,-4.998,-4.9968,-5.0131,-5.0104,-5.006,-4.9977,-5.0131,-5.0193,-5.0218,-4.9885,-4.9883,-4.9881,-4.9879,0,0,-4.9464,-4.9535,-4.9564,-4.9598,-4.9659,-4.9728,-4.9831,-4.991,-4.9958,-5.0016,-5.01,-5.0219,-5.0178,-5.0223,-5.0216,-5.0288,-5.0441,-5.0234,-5.0236,-5.0269,-5.0622,-5.0653,-5.0682,-5.0421,-5.0426,-5.0429,-5.0616,0,-4.9647,-4.9823,-4.9818,-4.9982,-5.0064,-5.0024,-5.0113,-5.016,-5.0176,-5.0248,-5.0266,-5.0349,-5.029,-5.0317,-5.0387,-5.0408,-5.0512,-5.0395,-5.0498,-5.0502,-5.0482,-5.0715,-5.0748,-5.0922,-5.0641,-5.0645,-5.0648,0,-4.9884,-4.9947,-5.0119,-5.0168,-5.0202,-5.0282,-5.0354,-5.0424,-5.0478,-5.0484,-5.0535,-5.0517,-5.0621,-5.0538,-5.0681,-5.0602,-5.0645,-5.0662,-5.0669,-5.0675,-5.0582,-5.0725,-5.0978,-5.1003,-5.0686,-5.0683,-5.068,0,-5.0036,-5.0166,-5.0285,-5.0316,-5.0376,-5.0433,-5.0461,-5.0509,-5.0558,-5.0623,-5.0654,-5.073,-5.0772,-5.0832,-5.0834,-5.0775,-5.0979,-5.0897,-5.0986,-5.0986,-5.1028,-5.1024,-5.1287,-5.1061,-5.106,-5.106,-5.1059,0,-5.0239,-5.0345,-5.0354,-5.0427,-5.0545,-5.0539,-5.0657,-5.0679,-5.0723,-5.08,-5.0773,-5.0846,-5.0846,-5.0922,-5.0925,-5.1042,-5.1062,-5.107,-5.1069,-5.107,-5.1069,-5.1096,-5.1083,-5.1067,-5.1065,-5.1064,-5.1063,0,-5.0428,-5.0438,-5.0565,-5.0612,-5.0626,-5.0711,-5.0752,-5.0822,-5.0835,-5.0934,-5.0956,-5.0978,-5.1065,-5.1075,-5.1177,-5.1179,-5.132,-5.1308,-5.1301,-5.1298,-5.1385,-5.1376,-5.1672,-5.171,-5.1462,-5.1464,-5.1466,0,-5.0555,-5.0636,-5.0691,-5.074,-5.0771,-5.0851,-5.09,-5.0899,-5.0951,-5.1019,-5.1081,-5.1165,-5.1232,-5.1373,-5.1399,-5.1477,-5.1464,-5.1563,-5.1476,-5.1474,-5.1463,-5.1456,-5.1464,-5.1579,-5.1581,-5.1584,-5.1585,0,-5.0779,-5.078,-5.0851,-5.0925,-5.0984,-5.1042,-5.1096,-5.1139,-5.1144,-5.1205,-5.1293,-5.1345,-5.1449,-5.1533,-5.161,-5.1639,-5.1614,-5.1613,-5.1637,-5.1638,-5.163,-5.1633,-5.1344,-5.1606,-5.1604,-5.1602,-5.1601,-5.16,-5.0939,-5.1008,-5.1058,-5.1138,-5.1179,-5.1231,-5.1298,-5.132,-5.1393,-5.1477,-5.1472,-5.1569,-5.1622,-5.1722,-5.1758,-5.1835,-5.1802,-5.1838,-5.1846,-5.1854,-5.1862,-5.1621,-5.1849,-5.1849,-5.1848,-5.1848,-5.1847,0,-5.1159,-5.1189,-5.1263,-5.134,-5.1403,-5.1374,-5.1433,-5.1488,-5.1573,-5.1624,-5.1691,-5.1792,-5.1874,-5.1906,-5.1986,-5.2041,-5.2031,-5.2062,-5.2056,-5.2063,-5.1888,-5.1857,-5.2069,-5.2069,-5.2069,-5.2069,-5.2068,-5.2068,-5.1281,-5.1396,-5.1403,-5.1539,-5.1568,-5.1662,-5.1698,-5.1746,-5.1786,-5.19,-5.1968,-5.1988,-5.2032,-5.2115,-5.2189,-5.2197,-5.2226,-5.2262,-5.2264,-5.2099,-5.2076,-5.2055,-5.2026,-5.2269,-5.2269,-5.2433,-5.2434,-5.2436]},{"header":{"parameterUnit":"m.s-1","parameterCategory":1,"la1":30.2991,"la2":30.254,"lo1":-89.0895,"lo2":-89.0444,"dy":0.0017,"dx":0.0017,"nx":28,"ny":28,"refTime":"2023-04-17T15:00:00:Z","depth":0,"parameterNumber":3,"parameterNumberName":"V-component_of_WINDS"},"data":[0,0,0,0,0,0,0,0,0,0,0,0,0,0,0,0,0,0,0,0,0,0,0,0,0,0,0,0,0,0,0,0,0,0,0,0,0,0,0,0,0,0,0,0,0,0,0,0,0,0,0,0,0,0,0,0,0,0,3.1663,3.1662,0,3.1592,3.1591,3.159,3.1503,3.1502,3.1501,3.1499,3.1421,3.1421,3.142,0,0,0,0,0,0,0,0,0,0,0,0,0,3.1722,3.1722,3.1663,3.1662,3.1662,3.1592,3.1591,3.159,3.1503,3.1502,3.15,3.1499,3.1422,3.1421,3.142,0,0,0,0,0,0,0,0,0,0,0,0,0,3.1678,3.1722,3.1663,3.161,3.1605,3.1592,3.1591,3.1589,3.1504,3.1502,3.15,3.1498,3.1422,3.1421,3.1419,3.1452,0,0,3.1416,3.1415,0,0,0,0,0,0,0,0,3.1681,3.1676,3.1619,3.1614,3.1608,3.1554,3.1583,3.1543,3.1504,3.1542,3.1499,3.1497,3.1467,3.1462,3.1453,3.1448,3.1445,3.1416,3.1415,3.1414,3.1414,0,0,0,0,0,0,0,3.1684,3.1679,3.1635,3.1618,3.1611,3.1589,3.158,3.1575,3.1516,3.1539,3.1532,3.1525,3.1463,3.1454,3.145,3.1444,3.1416,3.1414,3.1414,3.1413,3.1461,3.1463,0,0,0,0,0,0,3.1696,3.1682,3.1637,3.1633,3.164,3.1589,3.158,3.1573,3.1516,3.1506,3.1527,3.1521,3.1457,3.1452,3.1447,3.148,3.1414,3.1413,3.1412,3.1459,3.1462,3.1464,0,0,0,0,0,0,3.1697,3.1692,3.164,3.1655,3.1647,3.1591,3.1584,3.1573,3.1564,3.1507,3.1496,3.1528,3.1455,3.1449,3.1451,3.1476,3.1413,3.1411,3.1457,3.146,3.1463,3.1548,0,0,0,0,0,0,3.1699,3.1694,3.1706,3.1656,3.1647,3.1647,3.1586,3.1573,3.1562,3.1554,3.1506,3.1496,3.1453,3.1454,3.145,3.1473,3.141,3.1454,3.1458,3.1462,3.1542,3.1553,3.1562,0,0,0,0,0,3.1702,3.1732,3.1707,3.1702,3.1661,3.1648,3.1643,3.1594,3.1565,3.1576,3.154,3.1497,3.1475,3.1455,3.145,3.1473,3.1452,3.1457,3.1462,3.1538,3.1551,3.1562,0,0,0,0,0,0,3.1784,3.1724,3.1696,3.1711,3.1686,3.1634,3.1647,3.161,3.1591,3.1584,3.1524,3.1514,3.1524,3.1499,3.1478,3.1501,3.1457,3.1461,3.1517,3.1529,3.1539,3.1544,3.1409,0,0,0,0,0,3.1804,3.18,3.1748,3.1766,3.1755,3.1704,3.1696,3.1662,3.1632,3.162,3.1584,3.1556,3.1542,3.1535,3.1519,3.1539,3.1526,3.1553,3.1563,3.1571,3.1575,3.1582,3.1593,3.1479,3.1479,3.1479,0,0,3.1845,3.1812,3.1813,3.1782,3.1758,3.1754,3.1695,3.1693,3.1689,3.1619,3.162,3.1593,3.1557,3.1569,3.1572,3.1548,3.1604,3.1577,3.1585,3.1583,3.1588,3.1599,3.1609,3.1482,3.1481,3.1481,0,0,3.1918,3.1893,3.1905,3.1883,3.1848,3.1814,3.1818,3.1771,3.1751,3.1751,3.1699,3.1693,3.1671,3.1648,3.1633,3.1699,3.1658,3.1695,3.1747,3.1755,3.1764,3.1772,3.1794,3.1802,3.1699,3.1699,3.1699,0,3.1972,3.1965,3.1916,3.1918,3.1905,3.1844,3.1856,3.1836,3.1798,3.179,3.1765,3.1736,3.1708,3.1713,3.1729,3.172,3.172,3.1699,3.1767,3.1774,3.1781,3.1801,3.1809,3.1704,3.1703,3.1703,3.1702,0,3.2034,3.203,3.2044,3.201,3.1999,3.2006,3.1956,3.1951,3.1918,3.1887,3.1887,3.1852,3.1828,3.1826,3.1793,3.1826,3.1813,3.1779,3.1733,3.1797,3.1815,3.1822,3.1711,3.1709,3.1707,3.1706,0,0,3.2153,3.2094,3.21,3.2083,3.2041,3.2037,3.204,3.2019,3.2015,3.1991,3.1991,3.1975,3.1943,3.1927,3.1891,3.1899,3.1951,3.1863,3.1861,3.1879,3.1984,3.2009,3.2018,3.1925,3.1927,3.1928,3.1986,0,3.2217,3.2221,3.2177,3.2192,3.2187,3.213,3.2133,3.2108,3.2078,3.2069,3.2036,3.2025,3.1985,3.1974,3.198,3.1944,3.1971,3.1939,3.1923,3.1923,3.1932,3.2028,3.2054,3.2111,3.1993,3.1994,3.1995,0,3.229,3.2272,3.2288,3.2245,3.2241,3.2245,3.2222,3.2214,3.2183,3.2161,3.2144,3.2104,3.2103,3.2062,3.2059,3.2039,3.203,3.2011,3.2012,3.2007,3.1961,3.2023,3.2128,3.2136,3.2006,3.2005,3.2004,0,3.2375,3.2354,3.236,3.2348,3.2299,3.2303,3.2283,3.225,3.224,3.222,3.2212,3.2191,3.218,3.2164,3.2118,3.2093,3.2121,3.2076,3.2101,3.2102,3.2107,3.2107,3.221,3.2105,3.2105,3.2105,3.2105,0,3.2448,3.2459,3.2397,3.2401,3.2412,3.2362,3.2373,3.2347,3.2319,3.2315,3.2265,3.2263,3.2204,3.2195,3.2159,3.2162,3.2157,3.2138,3.2128,3.2141,3.2143,3.2133,3.2127,3.2107,3.2106,3.2106,3.2106,0,3.2543,3.2502,3.2505,3.2459,3.2448,3.2458,3.2418,3.2419,3.2388,3.2384,3.238,3.233,3.2317,3.2271,3.2245,3.2221,3.2234,3.2216,3.2245,3.2238,3.2265,3.2263,3.2363,3.2373,3.2264,3.2266,3.2267,0,3.2592,3.2599,3.2555,3.255,3.2532,3.2525,3.2515,3.2466,3.2457,3.2423,3.2428,3.2411,3.2395,3.2375,3.2336,3.2316,3.2296,3.2333,3.2293,3.2306,3.2294,3.2294,3.2294,3.2341,3.2342,3.2343,3.2344,0,3.2682,3.2662,3.265,3.2632,3.2621,3.2604,3.2583,3.2582,3.2527,3.252,3.2506,3.2494,3.2469,3.2452,3.2426,3.2403,3.2364,3.2358,3.2362,3.2375,3.239,3.2381,3.2267,3.2355,3.2354,3.2353,3.2353,3.2352,3.2754,3.2758,3.2728,3.2716,3.2696,3.2678,3.2677,3.2646,3.2635,3.2612,3.2584,3.2573,3.2542,3.2504,3.2484,3.2474,3.2453,3.246,3.2461,3.2463,3.2469,3.2394,3.247,3.2469,3.2469,3.2469,3.2468,0,3.2841,3.2819,3.2809,3.2783,3.2773,3.274,3.2716,3.271,3.2702,3.2677,3.2663,3.2647,3.2631,3.2591,3.2571,3.257,3.2552,3.2566,3.2565,3.256,3.249,3.2487,3.2582,3.2582,3.2582,3.2582,3.2582,3.2582,3.2884,3.2889,3.2866,3.2859,3.2837,3.2828,3.2817,3.28,3.278,3.2765,3.2752,3.2727,3.2695,3.2673,3.2656,3.2644,3.2638,3.2658,3.2641,3.2576,3.2565,3.2554,3.2552,3.2658,3.2658,3.2711,3.2711,3.2712]}]]